[Date Prev][Date Next][Thread Prev][Thread Next] - [Date Index][Thread Index][Author Index]
2 Line ISS Keps 10-26
- Subject: [sarex] 2 Line ISS Keps 10-26
- From: "Dave Larsen PhD" <doc@xxxxxxxxxxx>
- Date: Tue, 26 Oct 2004 04:54:00 -0700
ISS
1 25544U 98067A 04300.45101852 .00031184 00000-0 26102-3 0 9994
2 25544 51.6373 15.9864 0008639 280.2159 266.3859 15.69656084338938
----
Via the sarex mailing list at AMSAT.ORG courtesy of AMSAT-NA.
To unsubscribe, send "unsubscribe sarex" to Majordomo@amsat.org
AMSAT Home